Location: New Frontier Mobile Home Park
(32.8448°N, 116.9675°W)
Time: 22:40:49
(UTC+00:00)

Cosmos 2278 Rocket - Pass Details

Date: 14 July 2020
Orbit: 841 x 846 km, 71.0° (Epoch: 05 August)

Event Time Altitude Azimuth Distance (km) Brightness Sun altitude
Rises 03:38:02 0° 357° (N) 3,407 5.9 -8.2°
Reaches altitude 10° 03:41:22 10° 16° (NNE) 2,467 4.9 -8.8°
Maximum altitude 03:45:05 18° 58° (ENE) 1,977 3.9 -9.5°
Drops below altitude 10° 03:48:46 10° 99° (E) 2,457 4.1 -10.1°
Enters shadow 03:48:49 10° 99° (E) 2,468 4.1 -10.1°
